Home > Weather > Ashgabat > Past weeks

Flag for Turkmenistan Weather for the Past 2 Weeks in Ashgabat, Turkmenistan

Now
66 °F

Overcast.


Feels Like: 66 °F
Forecast: 60 / 83 °F
Wind: 9 mph from East

Location: Ashgabat

Current Time: May 4, 2016 at 3:50:08 AM

Latest Report: May 4, 2016 at 3:00 AM


Visibility: N/A

Pressure: 29.92 "Hg

Humidity: 60%

Dew Point: 52 °F

Location of AshgabatLocation

Historic Weather in Ashgabat — Graph

°F

Ashgabat Temperature Yesterday

Maximum temperature yesterday: 73 °F (at 3:00 PM)
Minimum temperature yesterday: 63 °F (at 8:00 AM)
Average temperature yesterday: 68 °F

High & Low Weather Summary for the Past Weeks

 TemperatureHumidityPressure
High99 °F (Apr 27, 1:00 PM)83% (May 1, 5:00 AM)30.30 "Hg (May 1, 5:00 AM)
Low50 °F (Apr 19, 5:00 AM)11% (Apr 27, 5:00 PM)29.74 "Hg (Apr 27, 4:00 PM)
Average71 °F51%29.95 "Hg
* Reported Apr 19 2:00 AM — May 4 2:00 AM, Ashgabat, Weather by CustomWeather, © 2016

Note: Actual official high and low records may vary slightly from our data, if they occured in-between our weather recording intervals... More about our weather records

Advertising

Ashgabat Weather History for the Previous 24 Hours

Scroll right to see more
 ConditionsComfort  
Time TempWeatherWind HumidityBarometerVisibility
2:00 AM
Wed, May 4
66 °FOvercast.9 mph60%29.92 "HgN/A
1:00 AM68 °FPassing clouds.8 mph60%29.95 "HgN/A
12:00 AM68 °FPassing clouds.10 mph60%29.98 "HgN/A
11:00 PM
Tue, May 3
68 °FOvercast.8 mph60%29.98 "HgN/A
10:00 PM70 °FOvercast.8 mph57%30.01 "HgN/A
9:00 PM70 °FOvercast.7 mph57%29.98 "HgN/A
8:00 PM72 °FOvercast.10 mph53%29.98 "HgN/A
7:00 PM72 °FOvercast.12 mph53%29.98 "HgN/A
6:00 PM73 °FPartly sunny.12 mph53%29.98 "HgN/A
5:00 PM73 °FPartly sunny.13 mph53%29.98 "HgN/A
4:00 PM73 °FPartly sunny.9 mph50%29.98 "HgN/A
3:00 PM73 °FPartly sunny.10 mph53%29.98 "HgN/A
2:00 PM72 °FPartly sunny.6 mph53%30.01 "HgN/A
1:00 PM68 °FPartly sunny.5 mph60%30.01 "HgN/A
12:00 PM64 °FPartly sunny.9 mph68%30.04 "HgN/A
11:00 AM64 °FPartly sunny.12 mph68%30.04 "HgN/A
10:00 AM63 °FMostly cloudy.17 mph73%30.04 "HgN/A
9:00 AM63 °FBroken clouds.24 mph68%30.01 "HgN/A
8:00 AM63 °FBroken clouds.26 mph64%29.98 "HgN/A
7:00 AM64 °FPassing clouds.31 mph60%29.95 "Hg2 mi
6:00 AM66 °FPartly cloudy.16 mph60%29.92 "HgN/A
5:00 AM64 °FPassing clouds.6 mph73%29.89 "HgN/A
4:00 AM66 °FPassing clouds.5 mph73%29.89 "HgN/A
3:00 AM68 °FPassing clouds.2 mph69%29.92 "HgN/A
Weather by CustomWeather, © 2016

See weather overviewHow to use our weather pages